Tracking 28790 objects as of 19-Apr-2024
HD Live streaming from Space Station
objects crossing your sky now

BLOCK DM-SL R/B

Track BLOCK DM-SL R/B now!


NORAD ID: 29237
Int'l Code: 2006-023B
Perigee: 2,178.3 km
Apogee: 35,655.8 km
Inclination: 1.0 °
Period: 667.0 minutes
Semi major axis: 25288 km
RCS: 20.5292 m2 (large)
Launch date: June 18, 2006
Source: Sea Launch (SEAL)
Launch site: SEA LAUNCH (SEAL)

Note: This is a ROCKET BODY
Your satellite tracking list
Your tracking list is empty




NASA's NSSDC Master Catalog

Two Line Element Set (TLE):
1 29237U 06023B   24109.96612861 -.00000239  00000-0  00000+0 0  9993
2 29237   0.9919 324.4805 6619244 260.0103  57.6927  2.15889255140706
Source of the keplerian elements: AFSPC